Location: Bougoura
(13.1861°N, 5.0773°W)
Time: 04:01:00
(UTC+00:00)

SEDSat Delta rocket - Pass Details

Date: 18 September 2020
Orbit: 533 x 1000 km, 31.4° (Epoch: 23 October)

Event Time Altitude Azimuth Distance (km) Brightness Sun altitude
Rises 19:47:09 0° 312° (NW) 3,146 7.6 -22.2°
Reaches altitude 10° 19:50:03 10° 324° (NW) 2,134 6.4 -22.9°
Enters shadow 19:53:53 26° 14° (NNE) 1,242 4.5 -23.9°
